Year,Month,Day,Hour,Minute,Value (Times are PST for temperature in C)
2016,06,27,00,00,18.60
2016,06,27,00,01,18.60
2016,06,27,00,02,18.60
2016,06,27,00,03,18.50
2016,06,27,00,04,18.40
2016,06,27,00,05,18.40
2016,06,27,00,06,18.40
2016,06,27,00,07,18.40
2016,06,27,00,08,18.40
2016,06,27,00,09,18.40
2016,06,27,00,10,18.40
2016,06,27,00,11,18.40
2016,06,27,00,12,18.40
2016,06,27,00,13,18.40
2016,06,27,00,14,18.40
2016,06,27,00,15,18.40
2016,06,27,00,16,18.40
2016,06,27,00,17,18.40
2016,06,27,00,18,18.40
2016,06,27,00,19,18.40
2016,06,27,00,20,18.40
2016,06,27,00,21,18.30
2016,06,27,00,22,18.30
2016,06,27,00,23,18.30
2016,06,27,00,24,18.30
2016,06,27,00,25,18.30
2016,06,27,00,26,18.20
2016,06,27,00,27,18.20
2016,06,27,00,28,18.20
2016,06,27,00,29,18.10
2016,06,27,00,30,18.10
2016,06,27,00,31,18.10
2016,06,27,00,32,18.10
2016,06,27,00,33,18.10
2016,06,27,00,34,18.00
2016,06,27,00,35,18.00
2016,06,27,00,36,17.90
2016,06,27,00,37,17.90
2016,06,27,00,38,17.90
2016,06,27,00,39,17.80
2016,06,27,00,40,17.80
2016,06,27,00,41,17.80
2016,06,27,00,42,17.70
2016,06,27,00,43,17.70
2016,06,27,00,44,17.70
2016,06,27,00,45,17.70
2016,06,27,00,46,17.60
2016,06,27,00,47,17.60
2016,06,27,00,48,17.60
2016,06,27,00,49,17.60
2016,06,27,00,50,17.60
2016,06,27,00,51,17.60
2016,06,27,00,52,17.60
2016,06,27,00,53,17.60
2016,06,27,00,54,17.60
2016,06,27,00,55,17.60
2016,06,27,00,56,17.60
2016,06,27,00,57,17.60
2016,06,27,00,58,17.60
2016,06,27,00,59,17.60
2016,06,27,01,00,17.60
2016,06,27,01,01,17.60
2016,06,27,01,02,17.60
2016,06,27,01,03,17.60
2016,06,27,01,04,17.60
2016,06,27,01,05,17.60
2016,06,27,01,06,17.60
2016,06,27,01,07,17.60
2016,06,27,01,08,17.60
2016,06,27,01,09,17.50
2016,06,27,01,10,17.50
2016,06,27,01,11,17.50
2016,06,27,01,12,17.50
2016,06,27,01,13,17.50
2016,06,27,01,14,17.50
2016,06,27,01,15,17.40
2016,06,27,01,16,17.40
2016,06,27,01,17,17.40
2016,06,27,01,18,17.40
2016,06,27,01,19,17.40
2016,06,27,01,20,17.30
2016,06,27,01,21,17.30
2016,06,27,01,22,17.30
2016,06,27,01,23,17.30
2016,06,27,01,24,17.30
2016,06,27,01,25,17.30
2016,06,27,01,26,17.30
2016,06,27,01,27,17.30
2016,06,27,01,28,17.30
2016,06,27,01,29,17.30
2016,06,27,01,30,17.30
2016,06,27,01,31,17.30
2016,06,27,01,32,17.30
2016,06,27,01,33,17.20
2016,06,27,01,34,17.20
2016,06,27,01,35,17.20
2016,06,27,01,36,17.20
2016,06,27,01,37,17.20
2016,06,27,01,38,17.20
2016,06,27,01,39,17.20
2016,06,27,01,40,17.20
2016,06,27,01,41,17.10
2016,06,27,01,42,17.10
2016,06,27,01,43,17.10
2016,06,27,01,44,17.10
2016,06,27,01,45,17.10
2016,06,27,01,46,17.10
2016,06,27,01,47,17.00
2016,06,27,01,48,17.00
2016,06,27,01,49,17.00
2016,06,27,01,50,17.00
2016,06,27,01,51,17.00
2016,06,27,01,52,17.00
2016,06,27,01,53,16.90
2016,06,27,01,54,16.90
2016,06,27,01,55,16.90
2016,06,27,01,56,16.90
2016,06,27,01,57,16.90
2016,06,27,01,58,16.90
2016,06,27,01,59,16.90
2016,06,27,02,00,16.80
2016,06,27,02,01,16.80
2016,06,27,02,02,16.80
2016,06,27,02,03,16.80
2016,06,27,02,04,16.80
2016,06,27,02,05,16.80
2016,06,27,02,06,16.70
2016,06,27,02,07,16.70
2016,06,27,02,08,16.70
2016,06,27,02,09,16.70
2016,06,27,02,10,16.70
2016,06,27,02,11,16.70
2016,06,27,02,12,16.60
2016,06,27,02,13,16.60
2016,06,27,02,14,16.60
2016,06,27,02,15,16.60
2016,06,27,02,16,16.60
2016,06,27,02,17,16.60
2016,06,27,02,18,16.60
2016,06,27,02,19,16.60
2016,06,27,02,20,16.60
2016,06,27,02,21,16.60
2016,06,27,02,22,16.50
2016,06,27,02,23,16.50
2016,06,27,02,24,16.50
2016,06,27,02,25,16.50
2016,06,27,02,26,16.50
2016,06,27,02,27,16.40
2016,06,27,02,28,16.40
2016,06,27,02,29,16.40
2016,06,27,02,30,16.40
2016,06,27,02,31,16.40
2016,06,27,02,32,16.40
2016,06,27,02,33,16.40
2016,06,27,02,34,16.40
2016,06,27,02,35,16.30
2016,06,27,02,36,16.30
2016,06,27,02,37,16.30
2016,06,27,02,38,16.30
2016,06,27,02,39,16.30
2016,06,27,02,40,16.30
2016,06,27,02,41,16.30
2016,06,27,02,42,16.20
2016,06,27,02,43,16.20
2016,06,27,02,44,16.20
2016,06,27,02,45,16.20
2016,06,27,02,46,16.20
2016,06,27,02,47,16.20
2016,06,27,02,48,16.20
2016,06,27,02,49,16.20
2016,06,27,02,50,16.10
2016,06,27,02,51,16.10
2016,06,27,02,52,16.10
2016,06,27,02,53,16.10
2016,06,27,02,54,16.10
2016,06,27,02,55,16.10
2016,06,27,02,56,16.10
2016,06,27,02,57,16.10
2016,06,27,02,58,16.10
2016,06,27,02,59,16.10
2016,06,27,03,00,16.10
2016,06,27,03,01,16.10
2016,06,27,03,02,16.10
2016,06,27,03,03,16.10
2016,06,27,03,04,16.10
2016,06,27,03,05,16.00
2016,06,27,03,06,16.00
2016,06,27,03,07,16.00
2016,06,27,03,08,16.00
2016,06,27,03,09,16.00
2016,06,27,03,10,15.90
2016,06,27,03,11,15.90
2016,06,27,03,12,15.90
2016,06,27,03,13,15.90
2016,06,27,03,14,15.90
2016,06,27,03,15,15.90
2016,06,27,03,16,15.90
2016,06,27,03,17,15.90
2016,06,27,03,18,15.80
2016,06,27,03,19,15.80
2016,06,27,03,20,15.80
2016,06,27,03,21,15.80
2016,06,27,03,22,15.80
2016,06,27,03,23,15.80
2016,06,27,03,24,15.80
2016,06,27,03,25,15.80
2016,06,27,03,26,15.70
2016,06,27,03,27,15.70
2016,06,27,03,28,15.70
2016,06,27,03,29,15.70
2016,06,27,03,30,15.70
2016,06,27,03,31,15.70
2016,06,27,03,32,15.70
2016,06,27,03,33,15.70
2016,06,27,03,34,15.70
2016,06,27,03,35,15.70
2016,06,27,03,36,15.70
2016,06,27,03,37,15.70
2016,06,27,03,38,15.70
2016,06,27,03,39,15.60
2016,06,27,03,40,15.60
2016,06,27,03,41,15.60
2016,06,27,03,42,15.60
2016,06,27,03,43,15.60
2016,06,27,03,44,15.60
2016,06,27,03,45,15.60
2016,06,27,03,46,15.60
2016,06,27,03,47,15.50
2016,06,27,03,48,15.50
2016,06,27,03,49,15.50
2016,06,27,03,50,15.50
2016,06,27,03,51,15.40
2016,06,27,03,52,15.40
2016,06,27,03,53,15.40
2016,06,27,03,54,15.40
2016,06,27,03,55,15.40
2016,06,27,03,56,15.40
2016,06,27,03,57,15.40
2016,06,27,03,58,15.30
2016,06,27,03,59,15.30
2016,06,27,04,00,15.30
2016,06,27,04,01,15.30
2016,06,27,04,02,15.30
2016,06,27,04,03,15.30
2016,06,27,04,04,15.30
2016,06,27,04,05,15.30
2016,06,27,04,06,15.30
2016,06,27,04,07,15.20
2016,06,27,04,08,15.20
2016,06,27,04,09,15.20
2016,06,27,04,10,15.20
2016,06,27,04,11,15.20
2016,06,27,04,12,15.20
2016,06,27,04,13,15.20
2016,06,27,04,14,15.20
2016,06,27,04,15,15.20
2016,06,27,04,16,15.20
2016,06,27,04,17,15.10
2016,06,27,04,18,15.10
2016,06,27,04,19,15.10
2016,06,27,04,20,15.10
2016,06,27,04,21,15.10
2016,06,27,04,22,15.10
2016,06,27,04,23,15.10
2016,06,27,04,24,15.10
2016,06,27,04,25,15.10
2016,06,27,04,26,15.00
2016,06,27,04,27,15.00
2016,06,27,04,28,15.00
2016,06,27,04,29,15.00
2016,06,27,04,30,15.00
2016,06,27,04,31,15.00
2016,06,27,04,32,14.90
2016,06,27,04,33,14.90
2016,06,27,04,34,14.90
2016,06,27,04,35,14.90
2016,06,27,04,36,14.90
2016,06,27,04,37,14.90
2016,06,27,04,38,14.90
2016,06,27,04,39,14.90
2016,06,27,04,40,14.80
2016,06,27,04,41,14.80
2016,06,27,04,42,14.80
2016,06,27,04,43,14.80
2016,06,27,04,44,14.80
2016,06,27,04,45,14.80
2016,06,27,04,46,14.80
2016,06,27,04,47,14.80
2016,06,27,04,48,14.80
2016,06,27,04,49,14.80
2016,06,27,04,50,14.80
2016,06,27,04,51,14.80
2016,06,27,04,52,14.80
2016,06,27,04,53,14.80
2016,06,27,04,54,14.70
2016,06,27,04,55,14.70
2016,06,27,04,56,14.70
2016,06,27,04,57,14.70
2016,06,27,04,58,14.70
2016,06,27,04,59,14.70
2016,06,27,05,00,14.70
2016,06,27,05,01,14.70
2016,06,27,05,02,14.70
2016,06,27,05,03,14.70
2016,06,27,05,04,14.70
2016,06,27,05,05,14.70
2016,06,27,05,06,14.70
2016,06,27,05,07,14.70
2016,06,27,05,08,14.70
2016,06,27,05,09,14.70
2016,06,27,05,10,14.70
2016,06,27,05,11,14.70
2016,06,27,05,12,14.70
2016,06,27,05,13,14.70
2016,06,27,05,14,14.70
2016,06,27,05,15,14.70
2016,06,27,05,16,14.70
2016,06,27,05,17,14.70
2016,06,27,05,18,14.70
2016,06,27,05,19,14.70
2016,06,27,05,20,14.70
2016,06,27,05,21,14.70
2016,06,27,05,22,14.70
2016,06,27,05,23,14.70
2016,06,27,05,24,14.70
2016,06,27,05,25,14.70
2016,06,27,05,26,14.70
2016,06,27,05,27,14.70
2016,06,27,05,28,14.70
2016,06,27,05,29,14.70
2016,06,27,05,30,14.70
2016,06,27,05,31,14.70
2016,06,27,05,32,14.70
2016,06,27,05,33,14.70
2016,06,27,05,34,14.70
2016,06,27,05,35,14.70
2016,06,27,05,36,14.70
2016,06,27,05,37,14.70
2016,06,27,05,38,14.70
2016,06,27,05,39,14.70
2016,06,27,05,40,14.70
2016,06,27,05,41,14.60
2016,06,27,05,42,14.60
2016,06,27,05,43,14.60
2016,06,27,05,44,14.60
2016,06,27,05,45,14.60
2016,06,27,05,46,14.60
2016,06,27,05,47,14.60
2016,06,27,05,48,14.60
2016,06,27,05,49,14.60
2016,06,27,05,50,14.50
2016,06,27,05,51,14.50
2016,06,27,05,52,14.50
2016,06,27,05,53,14.50
2016,06,27,05,54,14.50
2016,06,27,05,55,14.50
2016,06,27,05,56,14.50
2016,06,27,05,57,14.50
2016,06,27,05,58,14.50
2016,06,27,05,59,14.50
2016,06,27,06,00,14.50
2016,06,27,06,01,14.40
2016,06,27,06,02,14.40
2016,06,27,06,03,14.40
2016,06,27,06,04,14.40
2016,06,27,06,05,14.40
2016,06,27,06,06,14.40
2016,06,27,06,07,14.40
2016,06,27,06,08,14.40
2016,06,27,06,09,14.40
2016,06,27,06,10,14.40
2016,06,27,06,11,14.40
2016,06,27,06,12,14.40
2016,06,27,06,13,14.40
2016,06,27,06,14,14.40
2016,06,27,06,15,14.40
2016,06,27,06,16,14.40
2016,06,27,06,17,14.40
2016,06,27,06,18,14.40
2016,06,27,06,19,14.40
2016,06,27,06,20,14.40
2016,06,27,06,21,14.30
2016,06,27,06,22,14.40
2016,06,27,06,23,14.40
2016,06,27,06,24,14.40
2016,06,27,06,25,14.40
2016,06,27,06,26,14.40
2016,06,27,06,27,14.40
2016,06,27,06,28,14.40
2016,06,27,06,29,14.40
2016,06,27,06,30,14.40
2016,06,27,06,31,14.40
2016,06,27,06,32,14.40
2016,06,27,06,33,14.40
2016,06,27,06,34,14.40
2016,06,27,06,35,14.40
2016,06,27,06,36,14.40
2016,06,27,06,37,14.40
2016,06,27,06,38,14.40
2016,06,27,06,39,14.50
2016,06,27,06,40,14.50
2016,06,27,06,41,14.50
2016,06,27,06,42,14.50
2016,06,27,06,43,14.60
2016,06,27,06,44,14.60
2016,06,27,06,45,14.60
2016,06,27,06,46,14.60
2016,06,27,06,47,14.60
2016,06,27,06,48,14.70
2016,06,27,06,49,14.70
2016,06,27,06,50,14.70
2016,06,27,06,51,14.70
2016,06,27,06,52,14.70
2016,06,27,06,53,14.70
2016,06,27,06,54,14.70
2016,06,27,06,55,14.70
2016,06,27,06,56,14.70
2016,06,27,06,57,14.80
2016,06,27,06,58,14.80
2016,06,27,06,59,14.80
2016,06,27,07,00,14.80
2016,06,27,07,01,14.80
2016,06,27,07,02,14.80
2016,06,27,07,03,14.80
2016,06,27,07,04,14.90
2016,06,27,07,05,14.90
2016,06,27,07,06,14.90
2016,06,27,07,07,14.90
2016,06,27,07,08,14.90
2016,06,27,07,09,14.90
2016,06,27,07,10,15.00
2016,06,27,07,11,15.00
2016,06,27,07,12,15.00
2016,06,27,07,13,15.10
2016,06,27,07,14,15.10
2016,06,27,07,15,15.10
2016,06,27,07,16,15.10
2016,06,27,07,17,15.10
2016,06,27,07,18,15.20
2016,06,27,07,19,15.20
2016,06,27,07,20,15.20
2016,06,27,07,21,15.30
2016,06,27,07,22,15.30
2016,06,27,07,23,15.30
2016,06,27,07,24,15.30
2016,06,27,07,25,15.40
2016,06,27,07,26,15.40
2016,06,27,07,27,15.40
2016,06,27,07,28,15.40
2016,06,27,07,29,15.40
2016,06,27,07,30,15.50
2016,06,27,07,31,15.50
2016,06,27,07,32,15.50
2016,06,27,07,33,15.50
2016,06,27,07,34,15.60
2016,06,27,07,35,15.60
2016,06,27,07,36,15.60
2016,06,27,07,37,15.60
2016,06,27,07,38,15.60
2016,06,27,07,39,15.60
2016,06,27,07,40,15.60
2016,06,27,07,41,15.60
2016,06,27,07,42,15.70
2016,06,27,07,43,15.70
2016,06,27,07,44,15.70
2016,06,27,07,45,15.70
2016,06,27,07,46,15.70
2016,06,27,07,47,15.80
2016,06,27,07,48,15.80
2016,06,27,07,49,15.80
2016,06,27,07,50,15.70
2016,06,27,07,51,15.70
2016,06,27,07,52,15.70
2016,06,27,07,53,15.70
2016,06,27,07,54,15.70
2016,06,27,07,55,15.80
2016,06,27,07,56,15.80
2016,06,27,07,57,15.80
2016,06,27,07,58,15.80
2016,06,27,07,59,15.80
2016,06,27,08,00,15.80
2016,06,27,08,01,15.80
2016,06,27,08,02,15.90
2016,06,27,08,03,15.90
2016,06,27,08,04,15.90
2016,06,27,08,05,15.90
2016,06,27,08,06,15.90
2016,06,27,08,07,16.00
2016,06,27,08,08,16.00
2016,06,27,08,09,16.00
2016,06,27,08,10,16.10
2016,06,27,08,11,16.10
2016,06,27,08,12,16.10
2016,06,27,08,13,16.10
2016,06,27,08,14,16.10
2016,06,27,08,15,16.10
2016,06,27,08,16,16.10
2016,06,27,08,17,16.20
2016,06,27,08,18,16.20
2016,06,27,08,19,16.20
2016,06,27,08,20,16.20
2016,06,27,08,21,16.20
2016,06,27,08,22,16.10
2016,06,27,08,23,16.10
2016,06,27,08,24,16.10
2016,06,27,08,25,16.00
2016,06,27,08,26,16.00
2016,06,27,08,27,16.00
2016,06,27,08,28,16.00
2016,06,27,08,29,16.10
2016,06,27,08,30,16.10
2016,06,27,08,31,16.10
2016,06,27,08,32,16.10
2016,06,27,08,33,16.10
2016,06,27,08,34,16.10
2016,06,27,08,35,16.20
2016,06,27,08,36,16.20
2016,06,27,08,37,16.20
2016,06,27,08,38,16.20
2016,06,27,08,39,16.30
2016,06,27,08,40,16.30
2016,06,27,08,41,16.40
2016,06,27,08,42,16.40
2016,06,27,08,43,16.50
2016,06,27,08,44,16.50
2016,06,27,08,45,16.40
2016,06,27,08,46,16.40
2016,06,27,08,47,16.40
2016,06,27,08,48,16.40
2016,06,27,08,49,16.40
2016,06,27,08,50,16.40
2016,06,27,08,51,16.40
2016,06,27,08,52,16.40
2016,06,27,08,53,16.40
2016,06,27,08,54,16.40
2016,06,27,08,55,16.40
2016,06,27,08,56,16.30
2016,06,27,08,57,16.30
2016,06,27,08,58,16.30
2016,06,27,08,59,16.30
2016,06,27,09,00,16.30
2016,06,27,09,01,16.30
2016,06,27,09,02,16.30
2016,06,27,09,03,16.30
2016,06,27,09,04,16.30
2016,06,27,09,05,16.30
2016,06,27,09,06,16.30
2016,06,27,09,07,16.40
2016,06,27,09,08,16.40
2016,06,27,09,09,16.40
2016,06,27,09,10,16.50
2016,06,27,09,11,16.60
2016,06,27,09,12,16.60
2016,06,27,09,13,16.70
2016,06,27,09,14,16.70
2016,06,27,09,15,16.70
2016,06,27,09,16,16.80
2016,06,27,09,17,16.90
2016,06,27,09,18,16.90
2016,06,27,09,19,17.00
2016,06,27,09,20,17.00
2016,06,27,09,21,17.10
2016,06,27,09,22,17.10
2016,06,27,09,23,17.10
2016,06,27,09,24,17.10
2016,06,27,09,25,17.10
2016,06,27,09,26,17.10
2016,06,27,09,27,17.20
2016,06,27,09,28,17.20
2016,06,27,09,29,17.20
2016,06,27,09,30,17.20
2016,06,27,09,31,17.30
2016,06,27,09,32,17.30
2016,06,27,09,33,17.20
2016,06,27,09,34,17.10
2016,06,27,09,35,17.10
2016,06,27,09,36,17.00
2016,06,27,09,37,17.00
2016,06,27,09,38,16.90
2016,06,27,09,39,16.90
2016,06,27,09,40,16.90
2016,06,27,09,41,16.80
2016,06,27,09,42,16.80
2016,06,27,09,43,16.90
2016,06,27,09,44,16.90
2016,06,27,09,45,17.00
2016,06,27,09,46,17.00
2016,06,27,09,47,17.10
2016,06,27,09,48,17.10
2016,06,27,09,49,17.10
2016,06,27,09,50,17.20
2016,06,27,09,51,17.20
2016,06,27,09,52,17.30
2016,06,27,09,53,17.30
2016,06,27,09,54,17.40
2016,06,27,09,55,17.50
2016,06,27,09,56,17.50
2016,06,27,09,57,17.60
2016,06,27,09,58,17.70
2016,06,27,09,59,17.80
2016,06,27,10,00,17.80
2016,06,27,10,01,17.90
2016,06,27,10,02,17.90
2016,06,27,10,03,17.90
2016,06,27,10,04,18.00
2016,06,27,10,05,18.10
2016,06,27,10,06,18.10
2016,06,27,10,07,18.20
2016,06,27,10,08,18.20
2016,06,27,10,09,18.20
2016,06,27,10,10,18.10
2016,06,27,10,11,18.10
2016,06,27,10,12,18.10
2016,06,27,10,13,18.20
2016,06,27,10,14,18.20
2016,06,27,10,15,18.20
2016,06,27,10,16,18.20
2016,06,27,10,17,18.20
2016,06,27,10,18,18.20
2016,06,27,10,19,18.20
2016,06,27,10,20,18.20
2016,06,27,10,21,18.20
2016,06,27,10,22,18.30
2016,06,27,10,23,18.20
2016,06,27,10,24,18.30
2016,06,27,10,25,18.30
2016,06,27,10,26,18.20
2016,06,27,10,27,18.20
2016,06,27,10,28,18.30
2016,06,27,10,29,18.30
2016,06,27,10,30,18.20
2016,06,27,10,31,18.20
2016,06,27,10,32,18.20
2016,06,27,10,33,18.20
2016,06,27,10,34,18.20
2016,06,27,10,35,18.20
2016,06,27,10,36,18.20
2016,06,27,10,37,18.20
2016,06,27,10,38,18.10
2016,06,27,10,39,18.10
2016,06,27,10,40,18.10
2016,06,27,10,41,18.00
2016,06,27,10,42,18.00
2016,06,27,10,43,18.00
2016,06,27,10,44,18.00
2016,06,27,10,45,18.00
2016,06,27,10,46,18.10
2016,06,27,10,47,18.20
2016,06,27,10,48,18.20
2016,06,27,10,49,18.30
2016,06,27,10,50,18.30
2016,06,27,10,51,18.30
2016,06,27,10,52,18.40
2016,06,27,10,53,18.40
2016,06,27,10,54,18.50
2016,06,27,10,55,18.50
2016,06,27,10,56,18.60
2016,06,27,10,57,18.60
2016,06,27,10,58,18.70
2016,06,27,10,59,18.80
2016,06,27,11,00,18.80
2016,06,27,11,01,18.80
2016,06,27,11,02,18.90
2016,06,27,11,03,18.90
2016,06,27,11,04,18.90
2016,06,27,11,05,18.90
2016,06,27,11,06,18.90
2016,06,27,11,07,18.90
2016,06,27,11,08,19.00
2016,06,27,11,09,19.00
2016,06,27,11,10,19.10
2016,06,27,11,11,19.10
2016,06,27,11,12,19.20
2016,06,27,11,13,19.30
2016,06,27,11,14,19.40
2016,06,27,11,15,19.50
2016,06,27,11,16,19.70
2016,06,27,11,17,19.80
2016,06,27,11,18,19.90
2016,06,27,11,19,19.90
2016,06,27,11,20,19.90
2016,06,27,11,21,20.00
2016,06,27,11,22,20.00
2016,06,27,11,23,20.10
2016,06,27,11,24,20.10
2016,06,27,11,25,20.10
2016,06,27,11,26,20.10
2016,06,27,11,27,20.20
2016,06,27,11,28,20.30
2016,06,27,11,29,20.30
2016,06,27,11,30,20.40
2016,06,27,11,31,20.50
2016,06,27,11,32,20.60
2016,06,27,11,33,20.60
2016,06,27,11,34,20.50
2016,06,27,11,35,20.50
2016,06,27,11,36,20.50
2016,06,27,11,37,20.60
2016,06,27,11,38,20.60
2016,06,27,11,39,20.60
2016,06,27,11,40,20.70
2016,06,27,11,41,20.70
2016,06,27,11,42,20.80
2016,06,27,11,43,20.90
2016,06,27,11,44,21.00
2016,06,27,11,45,21.00
2016,06,27,11,46,21.00
2016,06,27,11,47,21.10
2016,06,27,11,48,21.20
2016,06,27,11,49,21.20
2016,06,27,11,50,21.10
2016,06,27,11,51,21.10
2016,06,27,11,52,21.10
2016,06,27,11,53,21.10
2016,06,27,11,54,21.20
2016,06,27,11,55,21.10
2016,06,27,11,56,21.10
2016,06,27,11,57,21.10
2016,06,27,11,58,21.10
2016,06,27,11,59,21.10
2016,06,27,12,00,21.10
2016,06,27,12,01,21.10
2016,06,27,12,02,21.10
2016,06,27,12,03,21.10
2016,06,27,12,04,21.20
2016,06,27,12,05,21.20
2016,06,27,12,06,21.30
2016,06,27,12,07,21.50
2016,06,27,12,08,21.50
2016,06,27,12,09,21.60
2016,06,27,12,10,21.70
2016,06,27,12,11,21.80
2016,06,27,12,12,21.80
2016,06,27,12,13,21.90
2016,06,27,12,14,22.00
2016,06,27,12,15,22.10
2016,06,27,12,16,22.20
2016,06,27,12,17,22.20
2016,06,27,12,18,22.30
2016,06,27,12,19,22.30
2016,06,27,12,20,22.30
2016,06,27,12,21,22.30
2016,06,27,12,22,22.30
2016,06,27,12,23,22.20
2016,06,27,12,24,22.10
2016,06,27,12,25,21.90
2016,06,27,12,26,21.80
2016,06,27,12,27,21.60
2016,06,27,12,28,21.50
2016,06,27,12,29,21.50
2016,06,27,12,30,21.50
2016,06,27,12,31,21.50
2016,06,27,12,32,21.50
2016,06,27,12,33,21.50
2016,06,27,12,34,21.40
2016,06,27,12,35,21.40
2016,06,27,12,36,21.40
2016,06,27,12,37,21.40
2016,06,27,12,38,21.30
2016,06,27,12,39,21.30
2016,06,27,12,40,21.30
2016,06,27,12,41,21.40
2016,06,27,12,42,21.50
2016,06,27,12,43,21.60
2016,06,27,12,44,21.60
2016,06,27,12,45,21.70
2016,06,27,12,46,21.80
2016,06,27,12,47,21.90
2016,06,27,12,48,22.10
2016,06,27,12,49,22.20
2016,06,27,12,50,22.30
2016,06,27,12,51,22.40
2016,06,27,12,52,22.50
2016,06,27,12,53,22.60
2016,06,27,12,54,22.70
2016,06,27,12,55,22.70
2016,06,27,12,56,22.70
2016,06,27,12,57,22.80
2016,06,27,12,58,22.80
2016,06,27,12,59,22.70
2016,06,27,13,00,22.70
2016,06,27,13,01,22.70
2016,06,27,13,02,22.70
2016,06,27,13,03,22.60
2016,06,27,13,04,22.60
2016,06,27,13,05,22.70
2016,06,27,13,06,22.70
2016,06,27,13,07,22.70
2016,06,27,13,08,22.80
2016,06,27,13,09,22.90
2016,06,27,13,10,23.00
2016,06,27,13,11,23.00
2016,06,27,13,12,23.10
2016,06,27,13,13,23.20
2016,06,27,13,14,23.20
2016,06,27,13,15,23.30
2016,06,27,13,16,23.30
2016,06,27,13,17,23.30
2016,06,27,13,18,23.30
2016,06,27,13,19,23.20
2016,06,27,13,20,23.10
2016,06,27,13,21,23.10
2016,06,27,13,22,23.00
2016,06,27,13,23,22.90
2016,06,27,13,24,22.80
2016,06,27,13,25,22.80
2016,06,27,13,26,22.70
2016,06,27,13,27,22.60
2016,06,27,13,28,22.50
2016,06,27,13,29,22.30
2016,06,27,13,30,22.20
2016,06,27,13,31,22.20
2016,06,27,13,32,22.20
2016,06,27,13,33,22.20
2016,06,27,13,34,22.30
2016,06,27,13,35,22.30
2016,06,27,13,36,22.40
2016,06,27,13,37,22.60
2016,06,27,13,38,22.70
2016,06,27,13,39,22.90
2016,06,27,13,40,22.90
2016,06,27,13,41,23.00
2016,06,27,13,42,23.10
2016,06,27,13,43,23.20
2016,06,27,13,44,23.30
2016,06,27,13,45,23.30
2016,06,27,13,46,23.40
2016,06,27,13,47,23.50
2016,06,27,13,48,23.60
2016,06,27,13,49,23.60
2016,06,27,13,50,23.60
2016,06,27,13,51,23.70
2016,06,27,13,52,23.70
2016,06,27,13,53,23.80
2016,06,27,13,54,23.80
2016,06,27,13,55,23.90
2016,06,27,13,56,23.90
2016,06,27,13,57,23.80
2016,06,27,13,58,23.90
2016,06,27,13,59,24.00
2016,06,27,14,00,24.10
2016,06,27,14,01,24.10
2016,06,27,14,02,24.10
2016,06,27,14,03,24.10
2016,06,27,14,04,24.00
2016,06,27,14,05,24.00
2016,06,27,14,06,24.00
2016,06,27,14,07,24.10
2016,06,27,14,08,24.10
2016,06,27,14,09,24.20
2016,06,27,14,10,24.20
2016,06,27,14,11,24.20
2016,06,27,14,12,24.20
2016,06,27,14,13,24.20
2016,06,27,14,14,24.30
2016,06,27,14,15,24.30
2016,06,27,14,16,24.40
2016,06,27,14,17,24.40
2016,06,27,14,18,24.50
2016,06,27,14,19,24.60
2016,06,27,14,20,24.70
2016,06,27,14,21,24.70
2016,06,27,14,22,24.80
2016,06,27,14,23,24.90
2016,06,27,14,24,24.90
2016,06,27,14,25,25.10
2016,06,27,14,26,25.20
2016,06,27,14,27,25.20
2016,06,27,14,28,25.30
2016,06,27,14,29,25.30
2016,06,27,14,30,25.40
2016,06,27,14,31,25.50
2016,06,27,14,32,25.50
2016,06,27,14,33,25.60
2016,06,27,14,34,25.60
2016,06,27,14,35,25.60
2016,06,27,14,36,25.70
2016,06,27,14,37,25.70
2016,06,27,14,38,25.70
2016,06,27,14,39,25.70
2016,06,27,14,40,25.70
2016,06,27,14,41,25.80
2016,06,27,14,42,25.80
2016,06,27,14,43,25.90
2016,06,27,14,44,25.90
2016,06,27,14,45,25.90
2016,06,27,14,46,25.90
2016,06,27,14,47,25.90
2016,06,27,14,48,26.00
2016,06,27,14,49,26.00
2016,06,27,14,50,26.00
2016,06,27,14,51,26.10
2016,06,27,14,52,26.10
2016,06,27,14,53,26.10
2016,06,27,14,54,26.20
2016,06,27,14,55,26.20
2016,06,27,14,56,26.20
2016,06,27,14,57,26.20
2016,06,27,14,58,26.30
2016,06,27,14,59,26.30
2016,06,27,15,00,26.40
2016,06,27,15,01,26.50
2016,06,27,15,02,26.50
2016,06,27,15,03,26.60
2016,06,27,15,04,26.50
2016,06,27,15,05,26.50
2016,06,27,15,06,26.50
2016,06,27,15,07,26.50
2016,06,27,15,08,26.50
2016,06,27,15,09,26.50
2016,06,27,15,10,26.60
2016,06,27,15,11,26.70
2016,06,27,15,12,26.70
2016,06,27,15,13,26.70
2016,06,27,15,14,26.70
2016,06,27,15,15,26.70
2016,06,27,15,16,26.70
2016,06,27,15,17,26.70
2016,06,27,15,18,26.80
2016,06,27,15,19,26.80
2016,06,27,15,20,26.90
2016,06,27,15,21,27.00
2016,06,27,15,22,27.10
2016,06,27,15,23,27.20
2016,06,27,15,24,27.30
2016,06,27,15,25,27.30
2016,06,27,15,26,27.40
2016,06,27,15,27,27.40
2016,06,27,15,28,27.30
2016,06,27,15,29,27.30
2016,06,27,15,30,27.30
2016,06,27,15,31,27.30
2016,06,27,15,32,27.30
2016,06,27,15,33,27.30
2016,06,27,15,34,27.30
2016,06,27,15,35,27.40
2016,06,27,15,36,27.40
2016,06,27,15,37,27.40
2016,06,27,15,38,27.40
2016,06,27,15,39,27.40
2016,06,27,15,40,27.40
2016,06,27,15,41,27.40
2016,06,27,15,42,27.40
2016,06,27,15,43,27.40
2016,06,27,15,44,27.40
2016,06,27,15,45,27.40
2016,06,27,15,46,27.30
2016,06,27,15,47,27.30
2016,06,27,15,48,27.20
2016,06,27,15,49,27.30
2016,06,27,15,50,27.30
2016,06,27,15,51,27.30
2016,06,27,15,52,27.30
2016,06,27,15,53,27.40
2016,06,27,15,54,27.30
2016,06,27,15,55,27.30
2016,06,27,15,56,27.30
2016,06,27,15,57,27.20
2016,06,27,15,58,27.20
2016,06,27,15,59,27.10
2016,06,27,16,00,27.10
2016,06,27,16,01,27.00
2016,06,27,16,02,26.90
2016,06,27,16,03,26.90
2016,06,27,16,04,26.90
2016,06,27,16,05,27.00
2016,06,27,16,06,27.00
2016,06,27,16,07,27.10
2016,06,27,16,08,27.10
2016,06,27,16,09,27.00
2016,06,27,16,10,26.90
2016,06,27,16,11,26.80
2016,06,27,16,12,26.70
2016,06,27,16,13,26.70
2016,06,27,16,14,26.70
2016,06,27,16,15,26.70
2016,06,27,16,16,26.70
2016,06,27,16,17,26.80
2016,06,27,16,18,26.90
2016,06,27,16,19,27.00
2016,06,27,16,20,27.00
2016,06,27,16,21,26.90
2016,06,27,16,22,26.80
2016,06,27,16,23,26.80
2016,06,27,16,24,26.70
2016,06,27,16,25,26.70
2016,06,27,16,26,26.50
2016,06,27,16,27,26.40
2016,06,27,16,28,26.20
2016,06,27,16,29,26.20
2016,06,27,16,30,26.10
2016,06,27,16,31,26.10
2016,06,27,16,32,26.20
2016,06,27,16,33,26.20
2016,06,27,16,34,26.30
2016,06,27,16,35,26.30
2016,06,27,16,36,26.40
2016,06,27,16,37,26.40
2016,06,27,16,38,26.50
2016,06,27,16,39,26.70
2016,06,27,16,40,26.80
2016,06,27,16,41,27.00
2016,06,27,16,42,27.10
2016,06,27,16,43,27.20
2016,06,27,16,44,27.20
2016,06,27,16,45,27.20
2016,06,27,16,46,27.20
2016,06,27,16,47,27.20
2016,06,27,16,48,27.20
2016,06,27,16,49,27.20
2016,06,27,16,50,27.20
2016,06,27,16,51,27.30
2016,06,27,16,52,27.30
2016,06,27,16,53,27.40
2016,06,27,16,54,27.40
2016,06,27,16,55,27.50
2016,06,27,16,56,27.50
2016,06,27,16,57,27.60
2016,06,27,16,58,27.70
2016,06,27,16,59,27.80
2016,06,27,17,00,27.90
2016,06,27,17,01,27.90
2016,06,27,17,02,28.00
2016,06,27,17,03,28.10
2016,06,27,17,04,28.10
2016,06,27,17,05,28.20
2016,06,27,17,06,28.20
2016,06,27,17,07,28.20
2016,06,27,17,08,28.30
2016,06,27,17,09,28.30
2016,06,27,17,10,28.30
2016,06,27,17,11,28.30
2016,06,27,17,12,28.30
2016,06,27,17,13,28.30
2016,06,27,17,14,28.30
2016,06,27,17,15,28.40
2016,06,27,17,16,28.40
2016,06,27,17,17,28.40
2016,06,27,17,18,28.40
2016,06,27,17,19,28.40